World > North America > United States > North Carolina

Tuxedo, North Carolina Regional Weather

Lat: 35.23N, Lon: 82.43W
Wx Zone: NCZ065
Warning FLW WEATHER ALERT - (More Info. Click Here) Warning
Feedback

Tuxedo, NC Regional Weather

Expires:201907222300;;477127
ASUS42 KRAH 222210
RWRRAH
NORTH CAROLINA WEATHER ROUNDUP
NATIONAL WEATHER SERVICE RALEIGH NC
600 PM EDT MON JUL 22 2019

NOTE: "FAIR" INDICATES FEW OR NO CLOUDS BELOW 12,000 FEET WITH NO
SIGNIFICANT WEATHER AND/OR OBSTRUCTIONS TO VISIBILITY.


NCZ001-053-055-056-065-067-222300-
WESTERN NORTH CAROLINA
  
CITY           SKY/WX    TMP DP  RH WIND       PRES   REMARKS
ASHEVILLE      PTSUNNY   77  67  71 CALM      30.02S                  
JEFFERSON      HVY RAIN  64  62  93 CALM      30.06S                  
MORGANTON      LGT RAIN  71  68  88 CALM      29.99F                  
HICKORY        LGT RAIN  71  67  87 NW8       29.94R                  
WILKESBORO     NOT AVBL                                               
RUTHERFORDTON  PTSUNNY   77  72  83 CALM      29.96S                  
MOUNT AIRY     RAIN      73  70  91 W6        29.96S                  
BOONE          RAIN      67  66  94 CALM      30.06F                  
$$
 

SKY/WX - Weather  TMP - Temperature  DP - Dew Point  RH - Relative Humidity
WIND - Wind Direction/Speed PRES - Barometric Pressure VSB - Visibility
WCI - Wind Chill Index E13G22 Wind - East Wind 13 mph/Gusts of 22 mph